• In Sweden
  • List of Countries
  • For 7 days
  • Water Temperature
  • Satellite Maps
  • Weather Map
  • Weather Widgets
  • user-avatar
    Login

    Hourly Weather Fedosovo

    Today, 20 June, Wednesday

    Time Temperature Precipitation Wind Pressure Humidity
    00:00 +16°C° 0 mm 3 mps 742 mmHg 92%
    01:00 +16°C° 0 mm 3 mps 742 mmHg 93%
    02:00 +14°C° 0 mm 3 mps 742 mmHg 95%
    03:00 +14°C° 0 mm 3 mps 742 mmHg 94%
    04:00 +14°C° 0 mm 3 mps 742 mmHg 93%
    05:00 +13°C° 0 mm 3 mps 743 mmHg 93%
    06:00 +16°C° 0 mm 3 mps 743 mmHg 83%
    07:00 +17°C° 0 mm 4 mps 743 mmHg 74%
    08:00 +19°C° 0 mm 4 mps 743 mmHg 61%
    09:00 +20°C° 0 mm 5 mps 743 mmHg 57%
    10:00 +20°C° 0 mm 5 mps 743 mmHg 54%
    11:00 +21°C° 0 mm 6 mps 743 mmHg 51%
    12:00 +22°C° 0 mm 6 mps 743 mmHg 50%
    13:00 +22°C° 0 mm 6 mps 742 mmHg 49%
    14:00 +22°C° 0 mm 6 mps 742 mmHg 48%
    15:00 +22°C° 0 mm 6 mps 742 mmHg 50%
    16:00 +22°C° 0 mm 5 mps 742 mmHg 51%
    17:00 +22°C° 0 mm 5 mps 742 mmHg 53%
    18:00 +20°C° 0 mm 4 mps 742 mmHg 58%
    19:00 +19°C° 0 mm 4 mps 742 mmHg 64%
    20:00 +17°C° 0 mm 3 mps 743 mmHg 69%
    21:00 +16°C° 0 mm 3 mps 743 mmHg 71%
    22:00 +14°C° 0 mm 3 mps 743 mmHg 73%
    23:00 +13°C° 0 mm 3 mps 743 mmHg 74%

    Tomorrow, 21 June, Thursday

    Time Temperature Precipitation Wind Pressure Humidity
    00:00 +13°C° 0 mm 3 mps 743 mmHg 76%
    01:00 +12°C° 0 mm 3 mps 744 mmHg 78%
    02:00 +12°C° 0 mm 3 mps 744 mmHg 81%
    03:00 +12°C° 0 mm 3 mps 744 mmHg 81%
    04:00 +12°C° 0 mm 3 mps 744 mmHg 82%
    05:00 +13°C° 0 mm 2 mps 744 mmHg 82%
    06:00 +14°C° 0 mm 3 mps 744 mmHg 76%
    07:00 +17°C° 0 mm 3 mps 744 mmHg 70%
    08:00 +19°C° 0 mm 4 mps 744 mmHg 65%
    09:00 +20°C° 0 mm 4 mps 743 mmHg 62%
    10:00 +22°C° 0 mm 4 mps 743 mmHg 60%
    11:00 +23°C° 0 mm 5 mps 743 mmHg 57%
    12:00 +25°C° 0 mm 5 mps 743 mmHg 57%
    13:00 +25°C° 0 mm 5 mps 742 mmHg 56%
    14:00 +26°C° 0 mm 5 mps 742 mmHg 55%
    15:00 +25°C° 0 mm 4 mps 742 mmHg 57%
    16:00 +25°C° 0 mm 4 mps 741 mmHg 60%
    17:00 +25°C° 0 mm 4 mps 741 mmHg 62%
    18:00 +24°C° 0 mm 3 mps 741 mmHg 69%
    19:00 +21°C° 0 mm 3 mps 741 mmHg 76%
    20:00 +20°C° 0 mm 2 mps 740 mmHg 83%
    21:00 +19°C° 0 mm 2 mps 740 mmHg 85%
    22:00 +18°C° 0 mm 3 mps 740 mmHg 87%
    23:00 +17°C° 0 mm 3 mps 740 mmHg 90%

    Day after tomorrow, 22 June, Friday

    Time Temperature Precipitation Wind Pressure Humidity
    00:00 +18°C° 0 mm 3 mps 740 mmHg 88%
    01:00 +18°C° 0 mm 4 mps 739 mmHg 86%
    02:00 +18°C° 0 mm 4 mps 739 mmHg 83%
    03:00 +19°C° 0 mm 4 mps 738 mmHg 83%
    04:00 +19°C° 0 mm 5 mps 738 mmHg 83%
    05:00 +19°C° 0 mm 5 mps 737 mmHg 82%
    06:00 +20°C° 0.1 mm 5 mps 737 mmHg 81%
    07:00 +21°C° 0.1 mm 6 mps 737 mmHg 80%
    08:00 +22°C° 0.1 mm 6 mps 736 mmHg 78%
    09:00 +23°C° 0.5 mm 6 mps 736 mmHg 81%
    10:00 +23°C° 0.5 mm 6 mps 736 mmHg 83%
    11:00 +23°C° 0.5 mm 6 mps 736 mmHg 86%
    12:00 +22°C° 1 mm 6 mps 737 mmHg 88%
    13:00 +21°C° 1 mm 5 mps 737 mmHg 90%
    14:00 +19°C° 1 mm 4 mps 737 mmHg 92%
    15:00 +18°C° 0.3 mm 4 mps 737 mmHg 90%
    16:00 +17°C° 0.3 mm 3 mps 738 mmHg 88%
    17:00 +16°C° 0.3 mm 3 mps 738 mmHg 86%
    18:00 +14°C° 0 mm 3 mps 738 mmHg 86%
    19:00 +15°C° 0 mm 2 mps 739 mmHg 87%
    20:00 +14°C° 0 mm 2 mps 739 mmHg 87%
    21:00 +14°C° 0 mm 2 mps 739 mmHg 88%
    22:00 +13°C° 0 mm 2 mps 740 mmHg 89%
    23:00 +13°C° 0 mm 2 mps 740 mmHg 90%

    23 June, Saturday

    Time Temperature Precipitation Wind Pressure Humidity
    00:00 +13°C° 0 mm 2 mps 740 mmHg 91%
    01:00 +13°C° 0 mm 2 mps 740 mmHg 92%
    02:00 +12°C° 0 mm 2 mps 740 mmHg 92%
    03:00 +12°C° 0.1 mm 1 mps 740 mmHg 93%
    04:00 +12°C° 0.1 mm 1 mps 740 mmHg 94%
    05:00 +12°C° 0.1 mm 1 mps 740 mmHg 95%
    06:00 +12°C° 0.6 mm 1 mps 741 mmHg 95%
    07:00 +12°C° 0.6 mm 1 mps 741 mmHg 95%
    08:00 +12°C° 0.6 mm 1 mps 741 mmHg 96%
    09:00 +12°C° 0.9 mm 1 mps 741 mmHg 95%
    10:00 +12°C° 0.9 mm 1 mps 741 mmHg 95%
    11:00 +12°C° 0.9 mm 1 mps 741 mmHg 94%
    12:00 +12°C° 1 mm 1 mps 741 mmHg 94%
    13:00 +12°C° 1 mm 1 mps 740 mmHg 94%
    14:00 +12°C° 1 mm 1 mps 740 mmHg 93%
    15:00 +12°C° 0.5 mm 1 mps 740 mmHg 93%
    16:00 +13°C° 0.5 mm 1 mps 740 mmHg 93%
    17:00 +13°C° 0.5 mm 1 mps 740 mmHg 93%
    18:00 +13°C° 0.1 mm 1 mps 740 mmHg 94%
    19:00 +12°C° 0.1 mm 1 mps 740 mmHg 95%
    20:00 +12°C° 0.1 mm 1 mps 740 mmHg 96%
    21:00 +11°C° 0 mm 1 mps 740 mmHg 97%
    22:00 +11°C° 0 mm 1 mps 740 mmHg 97%
    23:00 +10°C° 0 mm 1 mps 740 mmHg 98%

    24 June, Sunday

    Time Temperature Precipitation Wind Pressure Humidity
    00:00 +9°C° 0 mm 2 mps 740 mmHg 97%
    01:00 +9°C° 0 mm 2 mps 741 mmHg 97%
    02:00 +8°C° 0 mm 2 mps 741 mmHg 97%
    03:00 +9°C° 0 mm 2 mps 741 mmHg 96%
    04:00 +10°C° 0 mm 1 mps 741 mmHg 96%
    05:00 +10°C° 0 mm 1 mps 741 mmHg 95%
    06:00 +12°C° 0 mm 2 mps 741 mmHg 89%
    07:00 +14°C° 0 mm 2 mps 741 mmHg 83%
    08:00 +16°C° 0 mm 2 mps 741 mmHg 77%
    09:00 +17°C° 0.1 mm 2 mps 741 mmHg 71%
    10:00 +18°C° 0.1 mm 3 mps 742 mmHg 64%
    11:00 +20°C° 0.1 mm 3 mps 742 mmHg 57%
    12:00 +20°C° 0.2 mm 3 mps 742 mmHg 57%
    13:00 +20°C° 0.2 mm 3 mps 742 mmHg 58%
    14:00 +20°C° 0.2 mm 3 mps 742 mmHg 58%
    15:00 +20°C° 0.3 mm 3 mps 742 mmHg 62%
    16:00 +20°C° 0.3 mm 3 mps 742 mmHg 66%
    17:00 +19°C° 0.3 mm 3 mps 742 mmHg 70%
    18:00 +18°C° 0.2 mm 2 mps 743 mmHg 77%
    19:00 +16°C° 0.2 mm 2 mps 743 mmHg 83%
    20:00 +15°C° 0.2 mm 1 mps 743 mmHg 90%
    21:00 +14°C° 0.1 mm 1 mps 743 mmHg 92%
    22:00 +13°C° 0.1 mm 1 mps 743 mmHg 94%
    23:00 +12°C° 0.1 mm 1 mps 744 mmHg 95%

    25 June, Monday

    Time Temperature Precipitation Wind Pressure Humidity
    00:00 +11°C° 0 mm 1 mps 744 mmHg 96%
    01:00 +11°C° 0 mm 1 mps 744 mmHg 96%
    02:00 +11°C° 0 mm 1 mps 744 mmHg 96%
    03:00 +11°C° 0 mm 1 mps 744 mmHg 96%
    04:00 +11°C° 0 mm 1 mps 745 mmHg 96%
    05:00 +12°C° 0 mm 1 mps 745 mmHg 96%
    06:00 +13°C° 0 mm 1 mps 745 mmHg 89%
    07:00 +15°C° 0 mm 1 mps 745 mmHg 82%
    08:00 +18°C° 0 mm 1 mps 745 mmHg 76%
    09:00 +18°C° 0.1 mm 2 mps 745 mmHg 69%
    10:00 +19°C° 0.1 mm 2 mps 745 mmHg 63%
    11:00 +20°C° 0.1 mm 3 mps 745 mmHg 57%
    12:00 +20°C° 0.3 mm 3 mps 745 mmHg 58%
    13:00 +20°C° 0.3 mm 3 mps 745 mmHg 60%
    14:00 +21°C° 0.3 mm 4 mps 745 mmHg 62%
    15:00 +20°C° 0.3 mm 3 mps 745 mmHg 63%
    16:00 +20°C° 0.3 mm 3 mps 745 mmHg 64%
    17:00 +20°C° 0.3 mm 3 mps 745 mmHg 66%
    18:00 +18°C° 0.1 mm 2 mps 745 mmHg 70%
    19:00 +17°C° 0.1 mm 2 mps 745 mmHg 75%
    20:00 +15°C° 0.1 mm 2 mps 745 mmHg 80%
    21:00 +14°C° 0 mm 2 mps 745 mmHg 80%
    22:00 +13°C° 0 mm 2 mps 746 mmHg 81%
    23:00 +12°C° 0 mm 2 mps 746 mmHg 82%
    Show more